Index of /20260416/WXO-DD/model_rdps/10km/18/058
Name Last modified Size Description
Parent Directory -
20260416T18Z_MSC_RDPS_AbsoluteVorticity_IsbL-0250_RLatLon0.09_PT058H.grib2 2026-04-16 20:58 596K
20260416T18Z_MSC_RDPS_AbsoluteVorticity_IsbL-0500_RLatLon0.09_PT058H.grib2 2026-04-16 20:58 554K
20260416T18Z_MSC_RDPS_AbsoluteVorticity_IsbL-0700_RLatLon0.09_PT058H.grib2 2026-04-16 20:58 609K
20260416T18Z_MSC_RDPS_AbsoluteVorticity_IsbL-0850_RLatLon0.09_PT058H.grib2 2026-04-16 20:58 774K
20260416T18Z_MSC_RDPS_AirTemp_AGL-120m_RLatLon0.09_PT058H.grib2 2026-04-16 20:58 369K
20260416T18Z_MSC_RDPS_AirTemp_AGL-2m_RLatLon0.09_PT058H.grib2 2026-04-16 20:58 621K
20260416T18Z_MSC_RDPS_AirTemp_AGL-40m_RLatLon0.09_PT058H.grib2 2026-04-16 20:58 384K
20260416T18Z_MSC_RDPS_AirTemp_AGL-80m_RLatLon0.09_PT058H.grib2 2026-04-16 20:58 374K
20260416T18Z_MSC_RDPS_AirTemp_IsbL-0001_RLatLon0.09_PT058H.grib2 2026-04-16 20:58 295K
20260416T18Z_MSC_RDPS_AirTemp_IsbL-0005_RLatLon0.09_PT058H.grib2 2026-04-16 20:58 333K
20260416T18Z_MSC_RDPS_AirTemp_IsbL-0010_RLatLon0.09_PT058H.grib2 2026-04-16 20:58 304K
20260416T18Z_MSC_RDPS_AirTemp_IsbL-0020_RLatLon0.09_PT058H.grib2 2026-04-16 20:58 356K
20260416T18Z_MSC_RDPS_AirTemp_IsbL-0030_RLatLon0.09_PT058H.grib2 2026-04-16 20:58 374K
20260416T18Z_MSC_RDPS_AirTemp_IsbL-0050_RLatLon0.09_PT058H.grib2 2026-04-16 20:58 320K
20260416T18Z_MSC_RDPS_AirTemp_IsbL-0100_RLatLon0.09_PT058H.grib2 2026-04-16 20:58 419K
20260416T18Z_MSC_RDPS_AirTemp_IsbL-0150_RLatLon0.09_PT058H.grib2 2026-04-16 20:58 414K
20260416T18Z_MSC_RDPS_AirTemp_IsbL-0175_RLatLon0.09_PT058H.grib2 2026-04-16 20:58 408K
20260416T18Z_MSC_RDPS_AirTemp_IsbL-0200_RLatLon0.09_PT058H.grib2 2026-04-16 20:58 410K
20260416T18Z_MSC_RDPS_AirTemp_IsbL-0225_RLatLon0.09_PT058H.grib2 2026-04-16 20:58 412K
20260416T18Z_MSC_RDPS_AirTemp_IsbL-0250_RLatLon0.09_PT058H.grib2 2026-04-16 20:58 422K
20260416T18Z_MSC_RDPS_AirTemp_IsbL-0275_RLatLon0.09_PT058H.grib2 2026-04-16 20:58 400K
20260416T18Z_MSC_RDPS_AirTemp_IsbL-0300_RLatLon0.09_PT058H.grib2 2026-04-16 20:58 403K
20260416T18Z_MSC_RDPS_AirTemp_IsbL-0350_RLatLon0.09_PT058H.grib2 2026-04-16 20:58 416K
20260416T18Z_MSC_RDPS_AirTemp_IsbL-0400_RLatLon0.09_PT058H.grib2 2026-04-16 20:58 417K
20260416T18Z_MSC_RDPS_AirTemp_IsbL-0450_RLatLon0.09_PT058H.grib2 2026-04-16 20:58 426K
20260416T18Z_MSC_RDPS_AirTemp_IsbL-0500_RLatLon0.09_PT058H.grib2 2026-04-16 20:58 403K
20260416T18Z_MSC_RDPS_AirTemp_IsbL-0550_RLatLon0.09_PT058H.grib2 2026-04-16 20:58 420K
20260416T18Z_MSC_RDPS_AirTemp_IsbL-0600_RLatLon0.09_PT058H.grib2 2026-04-16 20:58 440K
20260416T18Z_MSC_RDPS_AirTemp_IsbL-0650_RLatLon0.09_PT058H.grib2 2026-04-16 20:58 454K
20260416T18Z_MSC_RDPS_AirTemp_IsbL-0700_RLatLon0.09_PT058H.grib2 2026-04-16 20:58 481K
20260416T18Z_MSC_RDPS_AirTemp_IsbL-0750_RLatLon0.09_PT058H.grib2 2026-04-16 20:58 518K
20260416T18Z_MSC_RDPS_AirTemp_IsbL-0800_RLatLon0.09_PT058H.grib2 2026-04-16 20:58 572K
20260416T18Z_MSC_RDPS_AirTemp_IsbL-0850_RLatLon0.09_PT058H.grib2 2026-04-16 20:58 499K
20260416T18Z_MSC_RDPS_AirTemp_IsbL-0875_RLatLon0.09_PT058H.grib2 2026-04-16 20:58 516K
20260416T18Z_MSC_RDPS_AirTemp_IsbL-0900_RLatLon0.09_PT058H.grib2 2026-04-16 20:58 519K
20260416T18Z_MSC_RDPS_AirTemp_IsbL-0925_RLatLon0.09_PT058H.grib2 2026-04-16 20:58 513K
20260416T18Z_MSC_RDPS_AirTemp_IsbL-0950_RLatLon0.09_PT058H.grib2 2026-04-16 20:58 508K
20260416T18Z_MSC_RDPS_AirTemp_IsbL-0970_RLatLon0.09_PT058H.grib2 2026-04-16 20:58 503K
20260416T18Z_MSC_RDPS_AirTemp_IsbL-0985_RLatLon0.09_PT058H.grib2 2026-04-16 20:58 508K
20260416T18Z_MSC_RDPS_AirTemp_IsbL-1000_RLatLon0.09_PT058H.grib2 2026-04-16 20:58 494K
20260416T18Z_MSC_RDPS_AirTemp_IsbL-1015_RLatLon0.09_PT058H.grib2 2026-04-16 20:58 494K
20260416T18Z_MSC_RDPS_Albedo_Sfc_RLatLon0.09_PT058H.grib2 2026-04-16 20:58 167K
20260416T18Z_MSC_RDPS_CAPE_Sfc_RLatLon0.09_PT058H.grib2 2026-04-16 20:58 1.6M
20260416T18Z_MSC_RDPS_CIN_Sfc_RLatLon0.09_PT058H.grib2 2026-04-16 20:58 1.1M
20260416T18Z_MSC_RDPS_CloudWater_EAtm_RLatLon0.09_PT058H.grib2 2026-04-16 20:58 210K
20260416T18Z_MSC_RDPS_ConvectivePrecip-Accum_Sfc_RLatLon0.09_PT058H.grib2 2026-04-16 20:58 1.1M
20260416T18Z_MSC_RDPS_DewPointDepression_AGL-2m_RLatLon0.09_PT058H.grib2 2026-04-16 20:58 389K
20260416T18Z_MSC_RDPS_DewPointDepression_IsbL-0001_RLatLon0.09_PT058H.grib2 2026-04-16 20:58 193
20260416T18Z_MSC_RDPS_DewPointDepression_IsbL-0005_RLatLon0.09_PT058H.grib2 2026-04-16 20:58 193
20260416T18Z_MSC_RDPS_DewPointDepression_IsbL-0010_RLatLon0.09_PT058H.grib2 2026-04-16 20:58 193
20260416T18Z_MSC_RDPS_DewPointDepression_IsbL-0020_RLatLon0.09_PT058H.grib2 2026-04-16 20:58 193
20260416T18Z_MSC_RDPS_DewPointDepression_IsbL-0030_RLatLon0.09_PT058H.grib2 2026-04-16 20:58 1.1K
20260416T18Z_MSC_RDPS_DewPointDepression_IsbL-0050_RLatLon0.09_PT058H.grib2 2026-04-16 20:58 118K
20260416T18Z_MSC_RDPS_DewPointDepression_IsbL-0100_RLatLon0.09_PT058H.grib2 2026-04-16 20:58 122K
20260416T18Z_MSC_RDPS_DewPointDepression_IsbL-0150_RLatLon0.09_PT058H.grib2 2026-04-16 20:58 147K
20260416T18Z_MSC_RDPS_DewPointDepression_IsbL-0175_RLatLon0.09_PT058H.grib2 2026-04-16 20:58 176K
20260416T18Z_MSC_RDPS_DewPointDepression_IsbL-0200_RLatLon0.09_PT058H.grib2 2026-04-16 20:58 207K
20260416T18Z_MSC_RDPS_DewPointDepression_IsbL-0225_RLatLon0.09_PT058H.grib2 2026-04-16 20:58 247K
20260416T18Z_MSC_RDPS_DewPointDepression_IsbL-0250_RLatLon0.09_PT058H.grib2 2026-04-16 20:58 288K
20260416T18Z_MSC_RDPS_DewPointDepression_IsbL-0275_RLatLon0.09_PT058H.grib2 2026-04-16 20:58 296K
20260416T18Z_MSC_RDPS_DewPointDepression_IsbL-0300_RLatLon0.09_PT058H.grib2 2026-04-16 20:58 311K
20260416T18Z_MSC_RDPS_DewPointDepression_IsbL-0350_RLatLon0.09_PT058H.grib2 2026-04-16 20:58 316K
20260416T18Z_MSC_RDPS_DewPointDepression_IsbL-0400_RLatLon0.09_PT058H.grib2 2026-04-16 20:58 335K
20260416T18Z_MSC_RDPS_DewPointDepression_IsbL-0450_RLatLon0.09_PT058H.grib2 2026-04-16 20:58 345K
20260416T18Z_MSC_RDPS_DewPointDepression_IsbL-0500_RLatLon0.09_PT058H.grib2 2026-04-16 20:58 349K
20260416T18Z_MSC_RDPS_DewPointDepression_IsbL-0550_RLatLon0.09_PT058H.grib2 2026-04-16 20:58 357K
20260416T18Z_MSC_RDPS_DewPointDepression_IsbL-0600_RLatLon0.09_PT058H.grib2 2026-04-16 20:58 371K
20260416T18Z_MSC_RDPS_DewPointDepression_IsbL-0650_RLatLon0.09_PT058H.grib2 2026-04-16 20:58 377K
20260416T18Z_MSC_RDPS_DewPointDepression_IsbL-0700_RLatLon0.09_PT058H.grib2 2026-04-16 20:58 389K
20260416T18Z_MSC_RDPS_DewPointDepression_IsbL-0750_RLatLon0.09_PT058H.grib2 2026-04-16 20:58 412K
20260416T18Z_MSC_RDPS_DewPointDepression_IsbL-0800_RLatLon0.09_PT058H.grib2 2026-04-16 20:58 442K
20260416T18Z_MSC_RDPS_DewPointDepression_IsbL-0850_RLatLon0.09_PT058H.grib2 2026-04-16 20:58 461K
20260416T18Z_MSC_RDPS_DewPointDepression_IsbL-0875_RLatLon0.09_PT058H.grib2 2026-04-16 20:58 461K
20260416T18Z_MSC_RDPS_DewPointDepression_IsbL-0900_RLatLon0.09_PT058H.grib2 2026-04-16 20:58 454K
20260416T18Z_MSC_RDPS_DewPointDepression_IsbL-0925_RLatLon0.09_PT058H.grib2 2026-04-16 20:58 444K
20260416T18Z_MSC_RDPS_DewPointDepression_IsbL-0950_RLatLon0.09_PT058H.grib2 2026-04-16 20:58 435K
20260416T18Z_MSC_RDPS_DewPointDepression_IsbL-0970_RLatLon0.09_PT058H.grib2 2026-04-16 20:58 426K
20260416T18Z_MSC_RDPS_DewPointDepression_IsbL-0985_RLatLon0.09_PT058H.grib2 2026-04-16 20:58 423K
20260416T18Z_MSC_RDPS_DewPointDepression_IsbL-1000_RLatLon0.09_PT058H.grib2 2026-04-16 20:58 417K
20260416T18Z_MSC_RDPS_DewPointDepression_IsbL-1015_RLatLon0.09_PT058H.grib2 2026-04-16 20:58 407K
20260416T18Z_MSC_RDPS_DewPoint_AGL-2m_RLatLon0.09_PT058H.grib2 2026-04-16 20:58 304K
20260416T18Z_MSC_RDPS_DownwardLongwaveRadiationFlux-Accum_Sfc_RLatLon0.09_PT058H.grib2 2026-04-16 20:58 389K
20260416T18Z_MSC_RDPS_DownwardShortwaveRadiationFlux-Accum_NTAtm_RLatLon0.09_PT058H.grib2 2026-04-16 20:58 108K
20260416T18Z_MSC_RDPS_DownwardShortwaveRadiationFlux-Accum_Sfc_RLatLon0.09_PT058H.grib2 2026-04-16 20:58 580K
20260416T18Z_MSC_RDPS_FreezingRain-Accum1h_Sfc_RLatLon0.09_PT058H.grib2 2026-04-16 20:58 26K
20260416T18Z_MSC_RDPS_FreezingRain-Accum_Sfc_RLatLon0.09_PT058H.grib2 2026-04-16 20:58 153K
20260416T18Z_MSC_RDPS_GeopotentialHeight_IsbL-0001_RLatLon0.09_PT058H.grib2 2026-04-16 20:58 266K
20260416T18Z_MSC_RDPS_GeopotentialHeight_IsbL-0005_RLatLon0.09_PT058H.grib2 2026-04-16 20:58 233K
20260416T18Z_MSC_RDPS_GeopotentialHeight_IsbL-0010_RLatLon0.09_PT058H.grib2 2026-04-16 20:58 336K
20260416T18Z_MSC_RDPS_GeopotentialHeight_IsbL-0020_RLatLon0.09_PT058H.grib2 2026-04-16 20:58 336K
20260416T18Z_MSC_RDPS_GeopotentialHeight_IsbL-0030_RLatLon0.09_PT058H.grib2 2026-04-16 20:58 337K
20260416T18Z_MSC_RDPS_GeopotentialHeight_IsbL-0050_RLatLon0.09_PT058H.grib2 2026-04-16 20:58 308K
20260416T18Z_MSC_RDPS_GeopotentialHeight_IsbL-0100_RLatLon0.09_PT058H.grib2 2026-04-16 20:58 283K
20260416T18Z_MSC_RDPS_GeopotentialHeight_IsbL-0150_RLatLon0.09_PT058H.grib2 2026-04-16 20:58 257K
20260416T18Z_MSC_RDPS_GeopotentialHeight_IsbL-0175_RLatLon0.09_PT058H.grib2 2026-04-16 20:58 260K
20260416T18Z_MSC_RDPS_GeopotentialHeight_IsbL-0200_RLatLon0.09_PT058H.grib2 2026-04-16 20:58 263K
20260416T18Z_MSC_RDPS_GeopotentialHeight_IsbL-0225_RLatLon0.09_PT058H.grib2 2026-04-16 20:58 264K
20260416T18Z_MSC_RDPS_GeopotentialHeight_IsbL-0250_RLatLon0.09_PT058H.grib2 2026-04-16 20:58 265K
20260416T18Z_MSC_RDPS_GeopotentialHeight_IsbL-0275_RLatLon0.09_PT058H.grib2 2026-04-16 20:58 264K
20260416T18Z_MSC_RDPS_GeopotentialHeight_IsbL-0300_RLatLon0.09_PT058H.grib2 2026-04-16 20:58 264K
20260416T18Z_MSC_RDPS_GeopotentialHeight_IsbL-0350_RLatLon0.09_PT058H.grib2 2026-04-16 20:58 229K
20260416T18Z_MSC_RDPS_GeopotentialHeight_IsbL-0400_RLatLon0.09_PT058H.grib2 2026-04-16 20:58 226K
20260416T18Z_MSC_RDPS_GeopotentialHeight_IsbL-0450_RLatLon0.09_PT058H.grib2 2026-04-16 20:58 294K
20260416T18Z_MSC_RDPS_GeopotentialHeight_IsbL-0500_RLatLon0.09_PT058H.grib2 2026-04-16 20:58 290K
20260416T18Z_MSC_RDPS_GeopotentialHeight_IsbL-0550_RLatLon0.09_PT058H.grib2 2026-04-16 20:58 286K
20260416T18Z_MSC_RDPS_GeopotentialHeight_IsbL-0600_RLatLon0.09_PT058H.grib2 2026-04-16 20:58 283K
20260416T18Z_MSC_RDPS_GeopotentialHeight_IsbL-0650_RLatLon0.09_PT058H.grib2 2026-04-16 20:58 280K
20260416T18Z_MSC_RDPS_GeopotentialHeight_IsbL-0700_RLatLon0.09_PT058H.grib2 2026-04-16 20:58 280K
20260416T18Z_MSC_RDPS_GeopotentialHeight_IsbL-0750_RLatLon0.09_PT058H.grib2 2026-04-16 20:58 255K
20260416T18Z_MSC_RDPS_GeopotentialHeight_IsbL-0800_RLatLon0.09_PT058H.grib2 2026-04-16 20:58 262K
20260416T18Z_MSC_RDPS_GeopotentialHeight_IsbL-0850_RLatLon0.09_PT058H.grib2 2026-04-16 20:58 269K
20260416T18Z_MSC_RDPS_GeopotentialHeight_IsbL-0875_RLatLon0.09_PT058H.grib2 2026-04-16 20:58 272K
20260416T18Z_MSC_RDPS_GeopotentialHeight_IsbL-0900_RLatLon0.09_PT058H.grib2 2026-04-16 20:58 276K
20260416T18Z_MSC_RDPS_GeopotentialHeight_IsbL-0925_RLatLon0.09_PT058H.grib2 2026-04-16 20:58 279K
20260416T18Z_MSC_RDPS_GeopotentialHeight_IsbL-0950_RLatLon0.09_PT058H.grib2 2026-04-16 20:58 282K
20260416T18Z_MSC_RDPS_GeopotentialHeight_IsbL-0970_RLatLon0.09_PT058H.grib2 2026-04-16 20:58 285K
20260416T18Z_MSC_RDPS_GeopotentialHeight_IsbL-0985_RLatLon0.09_PT058H.grib2 2026-04-16 20:58 290K
20260416T18Z_MSC_RDPS_GeopotentialHeight_IsbL-1000_RLatLon0.09_PT058H.grib2 2026-04-16 20:58 298K
20260416T18Z_MSC_RDPS_GeopotentialHeight_IsbL-1015_RLatLon0.09_PT058H.grib2 2026-04-16 20:58 310K
20260416T18Z_MSC_RDPS_Humidex_Sfc_RLatLon0.09_PT058H.grib2 2026-04-16 20:58 2.4M
20260416T18Z_MSC_RDPS_IcePellets-Accum1h_Sfc_RLatLon0.09_PT058H.grib2 2026-04-16 20:58 10K
20260416T18Z_MSC_RDPS_IcePellets-Accum_Sfc_RLatLon0.09_PT058H.grib2 2026-04-16 20:58 60K
20260416T18Z_MSC_RDPS_KIndex_Sfc_RLatLon0.09_PT058H.grib2 2026-04-16 20:58 2.5M
20260416T18Z_MSC_RDPS_LatentHeatNetFlux_Sfc_RLatLon0.09_PT058H.grib2 2026-04-16 20:58 306K
20260416T18Z_MSC_RDPS_LiftedIndex-MU-VT_IsbL-0500_RLatLon0.09_PT058H.grib2 2026-04-16 20:58 2.4M
20260416T18Z_MSC_RDPS_NetLongwaveRadiationFlux-Accum_Sfc_RLatLon0.09_PT058H.grib2 2026-04-16 20:58 573K
20260416T18Z_MSC_RDPS_NetShortwaveRadiationFlux-Accum_Sfc_RLatLon0.09_PT058H.grib2 2026-04-16 20:58 590K
20260416T18Z_MSC_RDPS_PlanetaryBoundaryLayerHeight_Sfc_RLatLon0.09_PT058H.grib2 2026-04-16 20:58 1.1M
20260416T18Z_MSC_RDPS_Precip-Accum1h_Sfc_RLatLon0.09_PT058H.grib2 2026-04-16 20:58 1.3M
20260416T18Z_MSC_RDPS_Precip-Accum_Sfc_RLatLon0.09_PT058H.grib2 2026-04-16 20:58 2.1M
20260416T18Z_MSC_RDPS_PrecipRate_Sfc_RLatLon0.09_PT058H.grib2 2026-04-16 20:58 231K
20260416T18Z_MSC_RDPS_PrecipType-Instant_Sfc_RLatLon0.09_PT058H.grib2 2026-04-16 20:58 567K
20260416T18Z_MSC_RDPS_Pressure-Trend3h_Sfc_RLatLon0.09_PT058H.grib2 2026-04-16 20:58 1.2M
20260416T18Z_MSC_RDPS_Pressure_MSL_RLatLon0.09_PT058H.grib2 2026-04-16 20:58 325K
20260416T18Z_MSC_RDPS_Pressure_PVU-1.5_RLatLon0.09_PT058H.grib2 2026-04-16 20:58 2.3M
20260416T18Z_MSC_RDPS_Pressure_PVU-1_RLatLon0.09_PT058H.grib2 2026-04-16 20:58 2.4M
20260416T18Z_MSC_RDPS_Pressure_PVU-2_RLatLon0.09_PT058H.grib2 2026-04-16 20:58 2.4M
20260416T18Z_MSC_RDPS_Pressure_Sfc_RLatLon0.09_PT058H.grib2 2026-04-16 20:58 499K
20260416T18Z_MSC_RDPS_RadiativeTemp_Sfc_RLatLon0.09_PT058H.grib2 2026-04-16 20:58 300K
20260416T18Z_MSC_RDPS_Rain-Accum1h_Sfc_RLatLon0.09_PT058H.grib2 2026-04-16 20:58 654K
20260416T18Z_MSC_RDPS_Rain-Accum_Sfc_RLatLon0.09_PT058H.grib2 2026-04-16 20:58 1.6M
20260416T18Z_MSC_RDPS_RelativeHumidity_AGL-2m_RLatLon0.09_PT058H.grib2 2026-04-16 20:58 1.0M
20260416T18Z_MSC_RDPS_RelativeHumidity_IsbL-0010_RLatLon0.09_PT058H.grib2 2026-04-16 20:58 640K
20260416T18Z_MSC_RDPS_RelativeHumidity_IsbL-0020_RLatLon0.09_PT058H.grib2 2026-04-16 20:58 533K
20260416T18Z_MSC_RDPS_RelativeHumidity_IsbL-0030_RLatLon0.09_PT058H.grib2 2026-04-16 20:58 464K
20260416T18Z_MSC_RDPS_RelativeHumidity_IsbL-0050_RLatLon0.09_PT058H.grib2 2026-04-16 20:58 263K
20260416T18Z_MSC_RDPS_RelativeHumidity_IsbL-0100_RLatLon0.09_PT058H.grib2 2026-04-16 20:58 360K
20260416T18Z_MSC_RDPS_RelativeHumidity_IsbL-0150_RLatLon0.09_PT058H.grib2 2026-04-16 20:58 386K
20260416T18Z_MSC_RDPS_RelativeHumidity_IsbL-0175_RLatLon0.09_PT058H.grib2 2026-04-16 20:58 472K
20260416T18Z_MSC_RDPS_RelativeHumidity_IsbL-0200_RLatLon0.09_PT058H.grib2 2026-04-16 20:58 545K
20260416T18Z_MSC_RDPS_RelativeHumidity_IsbL-0225_RLatLon0.09_PT058H.grib2 2026-04-16 20:58 610K
20260416T18Z_MSC_RDPS_RelativeHumidity_IsbL-0250_RLatLon0.09_PT058H.grib2 2026-04-16 20:58 675K
20260416T18Z_MSC_RDPS_RelativeHumidity_IsbL-0275_RLatLon0.09_PT058H.grib2 2026-04-16 20:58 694K
20260416T18Z_MSC_RDPS_RelativeHumidity_IsbL-0300_RLatLon0.09_PT058H.grib2 2026-04-16 20:58 732K
20260416T18Z_MSC_RDPS_RelativeHumidity_IsbL-0350_RLatLon0.09_PT058H.grib2 2026-04-16 20:58 747K
20260416T18Z_MSC_RDPS_RelativeHumidity_IsbL-0400_RLatLon0.09_PT058H.grib2 2026-04-16 20:58 767K
20260416T18Z_MSC_RDPS_RelativeHumidity_IsbL-0450_RLatLon0.09_PT058H.grib2 2026-04-16 20:58 779K
20260416T18Z_MSC_RDPS_RelativeHumidity_IsbL-0500_RLatLon0.09_PT058H.grib2 2026-04-16 20:58 796K
20260416T18Z_MSC_RDPS_RelativeHumidity_IsbL-0550_RLatLon0.09_PT058H.grib2 2026-04-16 20:58 814K
20260416T18Z_MSC_RDPS_RelativeHumidity_IsbL-0600_RLatLon0.09_PT058H.grib2 2026-04-16 20:58 835K
20260416T18Z_MSC_RDPS_RelativeHumidity_IsbL-0650_RLatLon0.09_PT058H.grib2 2026-04-16 20:58 849K
20260416T18Z_MSC_RDPS_RelativeHumidity_IsbL-0700_RLatLon0.09_PT058H.grib2 2026-04-16 20:58 861K
20260416T18Z_MSC_RDPS_RelativeHumidity_IsbL-0750_RLatLon0.09_PT058H.grib2 2026-04-16 20:58 911K
20260416T18Z_MSC_RDPS_RelativeHumidity_IsbL-0800_RLatLon0.09_PT058H.grib2 2026-04-16 20:58 1.0M
20260416T18Z_MSC_RDPS_RelativeHumidity_IsbL-0850_RLatLon0.09_PT058H.grib2 2026-04-16 20:58 1.0M
20260416T18Z_MSC_RDPS_RelativeHumidity_IsbL-0875_RLatLon0.09_PT058H.grib2 2026-04-16 20:58 1.0M
20260416T18Z_MSC_RDPS_RelativeHumidity_IsbL-0900_RLatLon0.09_PT058H.grib2 2026-04-16 20:58 1.1M
20260416T18Z_MSC_RDPS_RelativeHumidity_IsbL-0925_RLatLon0.09_PT058H.grib2 2026-04-16 20:58 1.1M
20260416T18Z_MSC_RDPS_RelativeHumidity_IsbL-0950_RLatLon0.09_PT058H.grib2 2026-04-16 20:58 1.0M
20260416T18Z_MSC_RDPS_RelativeHumidity_IsbL-0970_RLatLon0.09_PT058H.grib2 2026-04-16 20:58 1.0M
20260416T18Z_MSC_RDPS_RelativeHumidity_IsbL-0985_RLatLon0.09_PT058H.grib2 2026-04-16 20:58 1.0M
20260416T18Z_MSC_RDPS_RelativeHumidity_IsbL-1000_RLatLon0.09_PT058H.grib2 2026-04-16 20:58 1.0M
20260416T18Z_MSC_RDPS_RelativeHumidity_IsbL-1015_RLatLon0.09_PT058H.grib2 2026-04-16 20:58 1.0M
20260416T18Z_MSC_RDPS_Runoff-Accum_Sfc_RLatLon0.09_PT058H.grib2 2026-04-16 20:58 59K
20260416T18Z_MSC_RDPS_SWEATIndex_Sfc_RLatLon0.09_PT058H.grib2 2026-04-16 20:58 2.6M
20260416T18Z_MSC_RDPS_SeeingIndex_EAtm_RLatLon0.09_PT058H.grib2 2026-04-16 20:58 1.0M
20260416T18Z_MSC_RDPS_SensibleHeatNetFlux_Sfc_RLatLon0.09_PT058H.grib2 2026-04-16 20:58 292K
20260416T18Z_MSC_RDPS_ShowalterIndex_IsbL-0500_RLatLon0.09_PT058H.grib2 2026-04-16 20:58 2.6M
20260416T18Z_MSC_RDPS_SkyTransparencyIndex_EAtm_RLatLon0.09_PT058H.grib2 2026-04-16 20:58 718K
20260416T18Z_MSC_RDPS_Snow-Accum1h_Sfc_RLatLon0.09_PT058H.grib2 2026-04-16 20:58 474K
20260416T18Z_MSC_RDPS_Snow-Accum_Sfc_RLatLon0.09_PT058H.grib2 2026-04-16 20:58 827K
20260416T18Z_MSC_RDPS_SnowDensity_Sfc_RLatLon0.09_PT058H.grib2 2026-04-16 20:58 182K
20260416T18Z_MSC_RDPS_SnowDepth_Sfc_RLatLon0.09_PT058H.grib2 2026-04-16 20:58 730K
20260416T18Z_MSC_RDPS_SoilTemp_DBS-0to10cm_RLatLon0.09_PT058H.grib2 2026-04-16 20:58 237K
20260416T18Z_MSC_RDPS_SoilTemp_Sfc_RLatLon0.09_PT058H.grib2 2026-04-16 20:58 277K
20260416T18Z_MSC_RDPS_SoilVolumetricIceContent_Sfc_RLatLon0.09_PT058H.grib2 2026-04-16 20:58 176K
20260416T18Z_MSC_RDPS_SoilVolumetricWaterContent_DBS-0to10cm_RLatLon0.09_PT058H.grib2 2026-04-16 20:58 247K
20260416T18Z_MSC_RDPS_SoilVolumetricWaterContent_DBS-0to1cm_RLatLon0.09_PT058H.grib2 2026-04-16 20:58 336K
20260416T18Z_MSC_RDPS_SpecificHumidity_AGL-120m_RLatLon0.09_PT058H.grib2 2026-04-16 20:58 467K
20260416T18Z_MSC_RDPS_SpecificHumidity_AGL-2m_RLatLon0.09_PT058H.grib2 2026-04-16 20:58 626K
20260416T18Z_MSC_RDPS_SpecificHumidity_AGL-40m_RLatLon0.09_PT058H.grib2 2026-04-16 20:58 471K
20260416T18Z_MSC_RDPS_SpecificHumidity_AGL-80m_RLatLon0.09_PT058H.grib2 2026-04-16 20:58 468K
20260416T18Z_MSC_RDPS_SpecificHumidity_IsbL-0001_RLatLon0.09_PT058H.grib2 2026-04-16 20:58 303K
20260416T18Z_MSC_RDPS_SpecificHumidity_IsbL-0005_RLatLon0.09_PT058H.grib2 2026-04-16 20:58 341K
20260416T18Z_MSC_RDPS_SpecificHumidity_IsbL-0010_RLatLon0.09_PT058H.grib2 2026-04-16 20:58 375K
20260416T18Z_MSC_RDPS_SpecificHumidity_IsbL-0020_RLatLon0.09_PT058H.grib2 2026-04-16 20:58 370K
20260416T18Z_MSC_RDPS_SpecificHumidity_IsbL-0030_RLatLon0.09_PT058H.grib2 2026-04-16 20:58 426K
20260416T18Z_MSC_RDPS_SpecificHumidity_IsbL-0050_RLatLon0.09_PT058H.grib2 2026-04-16 20:58 489K
20260416T18Z_MSC_RDPS_SpecificHumidity_IsbL-0100_RLatLon0.09_PT058H.grib2 2026-04-16 20:58 491K
20260416T18Z_MSC_RDPS_SpecificHumidity_IsbL-0150_RLatLon0.09_PT058H.grib2 2026-04-16 20:58 437K
20260416T18Z_MSC_RDPS_SpecificHumidity_IsbL-0175_RLatLon0.09_PT058H.grib2 2026-04-16 20:58 530K
20260416T18Z_MSC_RDPS_SpecificHumidity_IsbL-0200_RLatLon0.09_PT058H.grib2 2026-04-16 20:58 437K
20260416T18Z_MSC_RDPS_SpecificHumidity_IsbL-0225_RLatLon0.09_PT058H.grib2 2026-04-16 20:58 547K
20260416T18Z_MSC_RDPS_SpecificHumidity_IsbL-0250_RLatLon0.09_PT058H.grib2 2026-04-16 20:58 545K
20260416T18Z_MSC_RDPS_SpecificHumidity_IsbL-0275_RLatLon0.09_PT058H.grib2 2026-04-16 20:58 456K
20260416T18Z_MSC_RDPS_SpecificHumidity_IsbL-0300_RLatLon0.09_PT058H.grib2 2026-04-16 20:58 522K
20260416T18Z_MSC_RDPS_SpecificHumidity_IsbL-0350_RLatLon0.09_PT058H.grib2 2026-04-16 20:58 510K
20260416T18Z_MSC_RDPS_SpecificHumidity_IsbL-0400_RLatLon0.09_PT058H.grib2 2026-04-16 20:58 498K
20260416T18Z_MSC_RDPS_SpecificHumidity_IsbL-0450_RLatLon0.09_PT058H.grib2 2026-04-16 20:58 557K
20260416T18Z_MSC_RDPS_SpecificHumidity_IsbL-0500_RLatLon0.09_PT058H.grib2 2026-04-16 20:58 493K
20260416T18Z_MSC_RDPS_SpecificHumidity_IsbL-0550_RLatLon0.09_PT058H.grib2 2026-04-16 20:58 549K
20260416T18Z_MSC_RDPS_SpecificHumidity_IsbL-0600_RLatLon0.09_PT058H.grib2 2026-04-16 20:58 618K
20260416T18Z_MSC_RDPS_SpecificHumidity_IsbL-0650_RLatLon0.09_PT058H.grib2 2026-04-16 20:58 535K
20260416T18Z_MSC_RDPS_SpecificHumidity_IsbL-0700_RLatLon0.09_PT058H.grib2 2026-04-16 20:58 575K
20260416T18Z_MSC_RDPS_SpecificHumidity_IsbL-0750_RLatLon0.09_PT058H.grib2 2026-04-16 20:58 627K
20260416T18Z_MSC_RDPS_SpecificHumidity_IsbL-0800_RLatLon0.09_PT058H.grib2 2026-04-16 20:58 698K
20260416T18Z_MSC_RDPS_SpecificHumidity_IsbL-0850_RLatLon0.09_PT058H.grib2 2026-04-16 20:58 777K
20260416T18Z_MSC_RDPS_SpecificHumidity_IsbL-0875_RLatLon0.09_PT058H.grib2 2026-04-16 20:58 800K
20260416T18Z_MSC_RDPS_SpecificHumidity_IsbL-0900_RLatLon0.09_PT058H.grib2 2026-04-16 20:58 812K
20260416T18Z_MSC_RDPS_SpecificHumidity_IsbL-0925_RLatLon0.09_PT058H.grib2 2026-04-16 20:58 816K
20260416T18Z_MSC_RDPS_SpecificHumidity_IsbL-0950_RLatLon0.09_PT058H.grib2 2026-04-16 20:58 814K
20260416T18Z_MSC_RDPS_SpecificHumidity_IsbL-0970_RLatLon0.09_PT058H.grib2 2026-04-16 20:58 803K
20260416T18Z_MSC_RDPS_SpecificHumidity_IsbL-0985_RLatLon0.09_PT058H.grib2 2026-04-16 20:58 795K
20260416T18Z_MSC_RDPS_SpecificHumidity_IsbL-1000_RLatLon0.09_PT058H.grib2 2026-04-16 20:58 786K
20260416T18Z_MSC_RDPS_SpecificHumidity_IsbL-1015_RLatLon0.09_PT058H.grib2 2026-04-16 20:58 639K
20260416T18Z_MSC_RDPS_SpecificHumidity_Sfc_RLatLon0.09_PT058H.grib2 2026-04-16 20:58 285K
20260416T18Z_MSC_RDPS_StormRelativeHelicity_EtaL-10000_RLatLon0.09_PT058H.grib2 2026-04-16 20:58 1.1M
20260416T18Z_MSC_RDPS_StormSeverityIndex_EtaL-10000_RLatLon0.09_PT058H.grib2 2026-04-16 20:58 1.2M
20260416T18Z_MSC_RDPS_Thickness_IsbL-0850to0700_RLatLon0.09_PT058H.grib2 2026-04-16 20:58 177K
20260416T18Z_MSC_RDPS_Thickness_IsbL-1000to0500_RLatLon0.09_PT058H.grib2 2026-04-16 20:58 199K
20260416T18Z_MSC_RDPS_Thickness_IsbL-1000to0850_RLatLon0.09_PT058H.grib2 2026-04-16 20:58 183K
20260416T18Z_MSC_RDPS_TotalCloudCover_Sfc_RLatLon0.09_PT058H.grib2 2026-04-16 20:58 662K
20260416T18Z_MSC_RDPS_TotalTotalsIndex_Sfc_RLatLon0.09_PT058H.grib2 2026-04-16 20:58 2.4M
20260416T18Z_MSC_RDPS_UVIndex-ClearSky_Sfc_RLatLon0.09_PT058H.grib2 2026-04-16 20:58 93K
20260416T18Z_MSC_RDPS_UVIndex_Sfc_RLatLon0.09_PT058H.grib2 2026-04-16 20:58 167K
20260416T18Z_MSC_RDPS_UpwardLongwaveRadiationFlux_NTAtm_RLatLon0.09_PT058H.grib2 2026-04-16 20:58 480K
20260416T18Z_MSC_RDPS_UpwardShortwaveRadiationFlux_NTAtm_RLatLon0.09_PT058H.grib2 2026-04-16 20:58 139K
20260416T18Z_MSC_RDPS_VerticalVelocity_IsbL-0250_RLatLon0.09_PT058H.grib2 2026-04-16 20:58 579K
20260416T18Z_MSC_RDPS_VerticalVelocity_IsbL-0500_RLatLon0.09_PT058H.grib2 2026-04-16 20:58 673K
20260416T18Z_MSC_RDPS_VerticalVelocity_IsbL-0700_RLatLon0.09_PT058H.grib2 2026-04-16 20:58 585K
20260416T18Z_MSC_RDPS_VerticalVelocity_IsbL-0850_RLatLon0.09_PT058H.grib2 2026-04-16 20:58 686K
20260416T18Z_MSC_RDPS_VerticalWindShear_EtaL-6500_RLatLon0.09_PT058H.grib2 2026-04-16 20:58 1.1M
20260416T18Z_MSC_RDPS_WindChill_Sfc_RLatLon0.09_PT058H.grib2 2026-04-16 20:58 1.2M
20260416T18Z_MSC_RDPS_WindDir_AGL-10m_RLatLon0.09_PT058H.grib2 2026-04-16 20:58 947K
20260416T18Z_MSC_RDPS_WindDir_AGL-120m_RLatLon0.09_PT058H.grib2 2026-04-16 20:58 578K
20260416T18Z_MSC_RDPS_WindDir_AGL-40m_RLatLon0.09_PT058H.grib2 2026-04-16 20:58 614K
20260416T18Z_MSC_RDPS_WindDir_AGL-80m_RLatLon0.09_PT058H.grib2 2026-04-16 20:58 592K
20260416T18Z_MSC_RDPS_WindDir_IsbL-0001_RLatLon0.09_PT058H.grib2 2026-04-16 20:58 267K
20260416T18Z_MSC_RDPS_WindDir_IsbL-0005_RLatLon0.09_PT058H.grib2 2026-04-16 20:58 379K
20260416T18Z_MSC_RDPS_WindDir_IsbL-0010_RLatLon0.09_PT058H.grib2 2026-04-16 20:58 374K
20260416T18Z_MSC_RDPS_WindDir_IsbL-0020_RLatLon0.09_PT058H.grib2 2026-04-16 20:58 387K
20260416T18Z_MSC_RDPS_WindDir_IsbL-0030_RLatLon0.09_PT058H.grib2 2026-04-16 20:58 385K
20260416T18Z_MSC_RDPS_WindDir_IsbL-0050_RLatLon0.09_PT058H.grib2 2026-04-16 20:58 408K
20260416T18Z_MSC_RDPS_WindDir_IsbL-0100_RLatLon0.09_PT058H.grib2 2026-04-16 20:58 388K
20260416T18Z_MSC_RDPS_WindDir_IsbL-0150_RLatLon0.09_PT058H.grib2 2026-04-16 20:58 386K
20260416T18Z_MSC_RDPS_WindDir_IsbL-0175_RLatLon0.09_PT058H.grib2 2026-04-16 20:58 413K
20260416T18Z_MSC_RDPS_WindDir_IsbL-0200_RLatLon0.09_PT058H.grib2 2026-04-16 20:58 430K
20260416T18Z_MSC_RDPS_WindDir_IsbL-0225_RLatLon0.09_PT058H.grib2 2026-04-16 20:58 437K
20260416T18Z_MSC_RDPS_WindDir_IsbL-0250_RLatLon0.09_PT058H.grib2 2026-04-16 20:58 430K
20260416T18Z_MSC_RDPS_WindDir_IsbL-0275_RLatLon0.09_PT058H.grib2 2026-04-16 20:58 445K
20260416T18Z_MSC_RDPS_WindDir_IsbL-0300_RLatLon0.09_PT058H.grib2 2026-04-16 20:58 440K
20260416T18Z_MSC_RDPS_WindDir_IsbL-0350_RLatLon0.09_PT058H.grib2 2026-04-16 20:58 460K
20260416T18Z_MSC_RDPS_WindDir_IsbL-0400_RLatLon0.09_PT058H.grib2 2026-04-16 20:58 481K
20260416T18Z_MSC_RDPS_WindDir_IsbL-0450_RLatLon0.09_PT058H.grib2 2026-04-16 20:58 502K
20260416T18Z_MSC_RDPS_WindDir_IsbL-0500_RLatLon0.09_PT058H.grib2 2026-04-16 20:58 530K
20260416T18Z_MSC_RDPS_WindDir_IsbL-0550_RLatLon0.09_PT058H.grib2 2026-04-16 20:58 554K
20260416T18Z_MSC_RDPS_WindDir_IsbL-0600_RLatLon0.09_PT058H.grib2 2026-04-16 20:58 582K
20260416T18Z_MSC_RDPS_WindDir_IsbL-0650_RLatLon0.09_PT058H.grib2 2026-04-16 20:58 619K
20260416T18Z_MSC_RDPS_WindDir_IsbL-0700_RLatLon0.09_PT058H.grib2 2026-04-16 20:58 660K
20260416T18Z_MSC_RDPS_WindDir_IsbL-0750_RLatLon0.09_PT058H.grib2 2026-04-16 20:58 701K
20260416T18Z_MSC_RDPS_WindDir_IsbL-0800_RLatLon0.09_PT058H.grib2 2026-04-16 20:58 758K
20260416T18Z_MSC_RDPS_WindDir_IsbL-0850_RLatLon0.09_PT058H.grib2 2026-04-16 20:58 837K
20260416T18Z_MSC_RDPS_WindDir_IsbL-0875_RLatLon0.09_PT058H.grib2 2026-04-16 20:58 867K
20260416T18Z_MSC_RDPS_WindDir_IsbL-0900_RLatLon0.09_PT058H.grib2 2026-04-16 20:58 883K
20260416T18Z_MSC_RDPS_WindDir_IsbL-0925_RLatLon0.09_PT058H.grib2 2026-04-16 20:58 889K
20260416T18Z_MSC_RDPS_WindDir_IsbL-0950_RLatLon0.09_PT058H.grib2 2026-04-16 20:58 883K
20260416T18Z_MSC_RDPS_WindDir_IsbL-0970_RLatLon0.09_PT058H.grib2 2026-04-16 20:58 889K
20260416T18Z_MSC_RDPS_WindDir_IsbL-0985_RLatLon0.09_PT058H.grib2 2026-04-16 20:58 900K
20260416T18Z_MSC_RDPS_WindDir_IsbL-1000_RLatLon0.09_PT058H.grib2 2026-04-16 20:58 918K
20260416T18Z_MSC_RDPS_WindDir_IsbL-1015_RLatLon0.09_PT058H.grib2 2026-04-16 20:58 939K
20260416T18Z_MSC_RDPS_WindGust-Max_AGL-10m_RLatLon0.09_PT058H.grib2 2026-04-16 20:58 1.0M
20260416T18Z_MSC_RDPS_WindGust-Min_AGL-10m_RLatLon0.09_PT058H.grib2 2026-04-16 20:58 972K
20260416T18Z_MSC_RDPS_WindGust_AGL-10m_RLatLon0.09_PT058H.grib2 2026-04-16 20:58 1.0M
20260416T18Z_MSC_RDPS_WindSpeed_AGL-10m_RLatLon0.09_PT058H.grib2 2026-04-16 20:58 841K
20260416T18Z_MSC_RDPS_WindSpeed_AGL-120m_RLatLon0.09_PT058H.grib2 2026-04-16 20:58 548K
20260416T18Z_MSC_RDPS_WindSpeed_AGL-40m_RLatLon0.09_PT058H.grib2 2026-04-16 20:58 543K
20260416T18Z_MSC_RDPS_WindSpeed_AGL-80m_RLatLon0.09_PT058H.grib2 2026-04-16 20:58 539K
20260416T18Z_MSC_RDPS_WindSpeed_IsbL-0001_RLatLon0.09_PT058H.grib2 2026-04-16 20:58 247K
20260416T18Z_MSC_RDPS_WindSpeed_IsbL-0005_RLatLon0.09_PT058H.grib2 2026-04-16 20:58 341K
20260416T18Z_MSC_RDPS_WindSpeed_IsbL-0010_RLatLon0.09_PT058H.grib2 2026-04-16 20:58 349K
20260416T18Z_MSC_RDPS_WindSpeed_IsbL-0020_RLatLon0.09_PT058H.grib2 2026-04-16 20:58 326K
20260416T18Z_MSC_RDPS_WindSpeed_IsbL-0030_RLatLon0.09_PT058H.grib2 2026-04-16 20:58 325K
20260416T18Z_MSC_RDPS_WindSpeed_IsbL-0050_RLatLon0.09_PT058H.grib2 2026-04-16 20:58 363K
20260416T18Z_MSC_RDPS_WindSpeed_IsbL-0100_RLatLon0.09_PT058H.grib2 2026-04-16 20:58 476K
20260416T18Z_MSC_RDPS_WindSpeed_IsbL-0150_RLatLon0.09_PT058H.grib2 2026-04-16 20:58 369K
20260416T18Z_MSC_RDPS_WindSpeed_IsbL-0175_RLatLon0.09_PT058H.grib2 2026-04-16 20:58 396K
20260416T18Z_MSC_RDPS_WindSpeed_IsbL-0200_RLatLon0.09_PT058H.grib2 2026-04-16 20:58 436K
20260416T18Z_MSC_RDPS_WindSpeed_IsbL-0225_RLatLon0.09_PT058H.grib2 2026-04-16 20:58 443K
20260416T18Z_MSC_RDPS_WindSpeed_IsbL-0250_RLatLon0.09_PT058H.grib2 2026-04-16 20:58 445K
20260416T18Z_MSC_RDPS_WindSpeed_IsbL-0275_RLatLon0.09_PT058H.grib2 2026-04-16 20:58 459K
20260416T18Z_MSC_RDPS_WindSpeed_IsbL-0300_RLatLon0.09_PT058H.grib2 2026-04-16 20:58 454K
20260416T18Z_MSC_RDPS_WindSpeed_IsbL-0350_RLatLon0.09_PT058H.grib2 2026-04-16 20:58 462K
20260416T18Z_MSC_RDPS_WindSpeed_IsbL-0400_RLatLon0.09_PT058H.grib2 2026-04-16 20:58 467K
20260416T18Z_MSC_RDPS_WindSpeed_IsbL-0450_RLatLon0.09_PT058H.grib2 2026-04-16 20:58 470K
20260416T18Z_MSC_RDPS_WindSpeed_IsbL-0500_RLatLon0.09_PT058H.grib2 2026-04-16 20:58 455K
20260416T18Z_MSC_RDPS_WindSpeed_IsbL-0550_RLatLon0.09_PT058H.grib2 2026-04-16 20:58 457K
20260416T18Z_MSC_RDPS_WindSpeed_IsbL-0600_RLatLon0.09_PT058H.grib2 2026-04-16 20:58 581K
20260416T18Z_MSC_RDPS_WindSpeed_IsbL-0650_RLatLon0.09_PT058H.grib2 2026-04-16 20:58 600K
20260416T18Z_MSC_RDPS_WindSpeed_IsbL-0700_RLatLon0.09_PT058H.grib2 2026-04-16 20:58 625K
20260416T18Z_MSC_RDPS_WindSpeed_IsbL-0750_RLatLon0.09_PT058H.grib2 2026-04-16 20:58 698K
20260416T18Z_MSC_RDPS_WindSpeed_IsbL-0800_RLatLon0.09_PT058H.grib2 2026-04-16 20:58 749K
20260416T18Z_MSC_RDPS_WindSpeed_IsbL-0850_RLatLon0.09_PT058H.grib2 2026-04-16 20:58 809K
20260416T18Z_MSC_RDPS_WindSpeed_IsbL-0875_RLatLon0.09_PT058H.grib2 2026-04-16 20:58 832K
20260416T18Z_MSC_RDPS_WindSpeed_IsbL-0900_RLatLon0.09_PT058H.grib2 2026-04-16 20:58 849K
20260416T18Z_MSC_RDPS_WindSpeed_IsbL-0925_RLatLon0.09_PT058H.grib2 2026-04-16 20:58 862K
20260416T18Z_MSC_RDPS_WindSpeed_IsbL-0950_RLatLon0.09_PT058H.grib2 2026-04-16 20:58 860K
20260416T18Z_MSC_RDPS_WindSpeed_IsbL-0970_RLatLon0.09_PT058H.grib2 2026-04-16 20:58 859K
20260416T18Z_MSC_RDPS_WindSpeed_IsbL-0985_RLatLon0.09_PT058H.grib2 2026-04-16 20:58 853K
20260416T18Z_MSC_RDPS_WindSpeed_IsbL-1000_RLatLon0.09_PT058H.grib2 2026-04-16 20:58 849K
20260416T18Z_MSC_RDPS_WindSpeed_IsbL-1015_RLatLon0.09_PT058H.grib2 2026-04-16 20:58 842K
20260416T18Z_MSC_RDPS_WindU_AGL-10m_RLatLon0.09_PT058H.grib2 2026-04-16 20:58 383K
20260416T18Z_MSC_RDPS_WindU_AGL-120m_RLatLon0.09_PT058H.grib2 2026-04-16 20:58 417K
20260416T18Z_MSC_RDPS_WindU_AGL-40m_RLatLon0.09_PT058H.grib2 2026-04-16 20:58 422K
20260416T18Z_MSC_RDPS_WindU_AGL-80m_RLatLon0.09_PT058H.grib2 2026-04-16 20:58 419K
20260416T18Z_MSC_RDPS_WindU_IsbL-0001_RLatLon0.09_PT058H.grib2 2026-04-16 20:58 289K
20260416T18Z_MSC_RDPS_WindU_IsbL-0005_RLatLon0.09_PT058H.grib2 2026-04-16 20:58 333K
20260416T18Z_MSC_RDPS_WindU_IsbL-0010_RLatLon0.09_PT058H.grib2 2026-04-16 20:58 313K
20260416T18Z_MSC_RDPS_WindU_IsbL-0020_RLatLon0.09_PT058H.grib2 2026-04-16 20:58 328K
20260416T18Z_MSC_RDPS_WindU_IsbL-0030_RLatLon0.09_PT058H.grib2 2026-04-16 20:58 329K
20260416T18Z_MSC_RDPS_WindU_IsbL-0050_RLatLon0.09_PT058H.grib2 2026-04-16 20:58 390K
20260416T18Z_MSC_RDPS_WindU_IsbL-0100_RLatLon0.09_PT058H.grib2 2026-04-16 20:58 429K
20260416T18Z_MSC_RDPS_WindU_IsbL-0150_RLatLon0.09_PT058H.grib2 2026-04-16 20:58 387K
20260416T18Z_MSC_RDPS_WindU_IsbL-0175_RLatLon0.09_PT058H.grib2 2026-04-16 20:58 412K
20260416T18Z_MSC_RDPS_WindU_IsbL-0200_RLatLon0.09_PT058H.grib2 2026-04-16 20:58 429K
20260416T18Z_MSC_RDPS_WindU_IsbL-0225_RLatLon0.09_PT058H.grib2 2026-04-16 20:58 338K
20260416T18Z_MSC_RDPS_WindU_IsbL-0250_RLatLon0.09_PT058H.grib2 2026-04-16 20:58 337K
20260416T18Z_MSC_RDPS_WindU_IsbL-0275_RLatLon0.09_PT058H.grib2 2026-04-16 20:58 348K
20260416T18Z_MSC_RDPS_WindU_IsbL-0300_RLatLon0.09_PT058H.grib2 2026-04-16 20:58 342K
20260416T18Z_MSC_RDPS_WindU_IsbL-0350_RLatLon0.09_PT058H.grib2 2026-04-16 20:58 348K
20260416T18Z_MSC_RDPS_WindU_IsbL-0400_RLatLon0.09_PT058H.grib2 2026-04-16 20:58 353K
20260416T18Z_MSC_RDPS_WindU_IsbL-0450_RLatLon0.09_PT058H.grib2 2026-04-16 20:58 356K
20260416T18Z_MSC_RDPS_WindU_IsbL-0500_RLatLon0.09_PT058H.grib2 2026-04-16 20:58 360K
20260416T18Z_MSC_RDPS_WindU_IsbL-0550_RLatLon0.09_PT058H.grib2 2026-04-16 20:58 362K
20260416T18Z_MSC_RDPS_WindU_IsbL-0600_RLatLon0.09_PT058H.grib2 2026-04-16 20:58 472K
20260416T18Z_MSC_RDPS_WindU_IsbL-0650_RLatLon0.09_PT058H.grib2 2026-04-16 20:58 489K
20260416T18Z_MSC_RDPS_WindU_IsbL-0700_RLatLon0.09_PT058H.grib2 2026-04-16 20:58 511K
20260416T18Z_MSC_RDPS_WindU_IsbL-0750_RLatLon0.09_PT058H.grib2 2026-04-16 20:58 536K
20260416T18Z_MSC_RDPS_WindU_IsbL-0800_RLatLon0.09_PT058H.grib2 2026-04-16 20:58 578K
20260416T18Z_MSC_RDPS_WindU_IsbL-0850_RLatLon0.09_PT058H.grib2 2026-04-16 20:58 627K
20260416T18Z_MSC_RDPS_WindU_IsbL-0875_RLatLon0.09_PT058H.grib2 2026-04-16 20:58 645K
20260416T18Z_MSC_RDPS_WindU_IsbL-0900_RLatLon0.09_PT058H.grib2 2026-04-16 20:58 657K
20260416T18Z_MSC_RDPS_WindU_IsbL-0925_RLatLon0.09_PT058H.grib2 2026-04-16 20:58 665K
20260416T18Z_MSC_RDPS_WindU_IsbL-0950_RLatLon0.09_PT058H.grib2 2026-04-16 20:58 659K
20260416T18Z_MSC_RDPS_WindU_IsbL-0970_RLatLon0.09_PT058H.grib2 2026-04-16 20:58 651K
20260416T18Z_MSC_RDPS_WindU_IsbL-0985_RLatLon0.09_PT058H.grib2 2026-04-16 20:58 650K
20260416T18Z_MSC_RDPS_WindU_IsbL-1000_RLatLon0.09_PT058H.grib2 2026-04-16 20:58 648K
20260416T18Z_MSC_RDPS_WindU_IsbL-1015_RLatLon0.09_PT058H.grib2 2026-04-16 20:58 643K
20260416T18Z_MSC_RDPS_WindV_AGL-10m_RLatLon0.09_PT058H.grib2 2026-04-16 20:58 428K
20260416T18Z_MSC_RDPS_WindV_AGL-120m_RLatLon0.09_PT058H.grib2 2026-04-16 20:58 414K
20260416T18Z_MSC_RDPS_WindV_AGL-40m_RLatLon0.09_PT058H.grib2 2026-04-16 20:58 533K
20260416T18Z_MSC_RDPS_WindV_AGL-80m_RLatLon0.09_PT058H.grib2 2026-04-16 20:58 531K
20260416T18Z_MSC_RDPS_WindV_IsbL-0001_RLatLon0.09_PT058H.grib2 2026-04-16 20:58 289K
20260416T18Z_MSC_RDPS_WindV_IsbL-0005_RLatLon0.09_PT058H.grib2 2026-04-16 20:58 334K
20260416T18Z_MSC_RDPS_WindV_IsbL-0010_RLatLon0.09_PT058H.grib2 2026-04-16 20:58 343K
20260416T18Z_MSC_RDPS_WindV_IsbL-0020_RLatLon0.09_PT058H.grib2 2026-04-16 20:58 359K
20260416T18Z_MSC_RDPS_WindV_IsbL-0030_RLatLon0.09_PT058H.grib2 2026-04-16 20:58 321K
20260416T18Z_MSC_RDPS_WindV_IsbL-0050_RLatLon0.09_PT058H.grib2 2026-04-16 20:58 356K
20260416T18Z_MSC_RDPS_WindV_IsbL-0100_RLatLon0.09_PT058H.grib2 2026-04-16 20:58 423K
20260416T18Z_MSC_RDPS_WindV_IsbL-0150_RLatLon0.09_PT058H.grib2 2026-04-16 20:58 384K
20260416T18Z_MSC_RDPS_WindV_IsbL-0175_RLatLon0.09_PT058H.grib2 2026-04-16 20:58 411K
20260416T18Z_MSC_RDPS_WindV_IsbL-0200_RLatLon0.09_PT058H.grib2 2026-04-16 20:58 429K
20260416T18Z_MSC_RDPS_WindV_IsbL-0225_RLatLon0.09_PT058H.grib2 2026-04-16 20:58 338K
20260416T18Z_MSC_RDPS_WindV_IsbL-0250_RLatLon0.09_PT058H.grib2 2026-04-16 20:58 338K
20260416T18Z_MSC_RDPS_WindV_IsbL-0275_RLatLon0.09_PT058H.grib2 2026-04-16 20:58 349K
20260416T18Z_MSC_RDPS_WindV_IsbL-0300_RLatLon0.09_PT058H.grib2 2026-04-16 20:58 344K
20260416T18Z_MSC_RDPS_WindV_IsbL-0350_RLatLon0.09_PT058H.grib2 2026-04-16 20:58 350K
20260416T18Z_MSC_RDPS_WindV_IsbL-0400_RLatLon0.09_PT058H.grib2 2026-04-16 20:58 353K
20260416T18Z_MSC_RDPS_WindV_IsbL-0450_RLatLon0.09_PT058H.grib2 2026-04-16 20:58 355K
20260416T18Z_MSC_RDPS_WindV_IsbL-0500_RLatLon0.09_PT058H.grib2 2026-04-16 20:58 460K
20260416T18Z_MSC_RDPS_WindV_IsbL-0550_RLatLon0.09_PT058H.grib2 2026-04-16 20:58 462K
20260416T18Z_MSC_RDPS_WindV_IsbL-0600_RLatLon0.09_PT058H.grib2 2026-04-16 20:58 469K
20260416T18Z_MSC_RDPS_WindV_IsbL-0650_RLatLon0.09_PT058H.grib2 2026-04-16 20:58 486K
20260416T18Z_MSC_RDPS_WindV_IsbL-0700_RLatLon0.09_PT058H.grib2 2026-04-16 20:58 492K
20260416T18Z_MSC_RDPS_WindV_IsbL-0750_RLatLon0.09_PT058H.grib2 2026-04-16 20:58 531K
20260416T18Z_MSC_RDPS_WindV_IsbL-0800_RLatLon0.09_PT058H.grib2 2026-04-16 20:58 561K
20260416T18Z_MSC_RDPS_WindV_IsbL-0850_RLatLon0.09_PT058H.grib2 2026-04-16 20:58 613K
20260416T18Z_MSC_RDPS_WindV_IsbL-0875_RLatLon0.09_PT058H.grib2 2026-04-16 20:58 642K
20260416T18Z_MSC_RDPS_WindV_IsbL-0900_RLatLon0.09_PT058H.grib2 2026-04-16 20:58 646K
20260416T18Z_MSC_RDPS_WindV_IsbL-0925_RLatLon0.09_PT058H.grib2 2026-04-16 20:58 654K
20260416T18Z_MSC_RDPS_WindV_IsbL-0950_RLatLon0.09_PT058H.grib2 2026-04-16 20:58 650K
20260416T18Z_MSC_RDPS_WindV_IsbL-0970_RLatLon0.09_PT058H.grib2 2026-04-16 20:58 647K
20260416T18Z_MSC_RDPS_WindV_IsbL-0985_RLatLon0.09_PT058H.grib2 2026-04-16 20:58 784K
20260416T18Z_MSC_RDPS_WindV_IsbL-1000_RLatLon0.09_PT058H.grib2 2026-04-16 20:58 778K
20260416T18Z_MSC_RDPS_WindV_IsbL-1015_RLatLon0.09_PT058H.grib2 2026-04-16 20:58 773K